Hurricane Symbol View the latest observations near Atlantic Tropical Storm Alberto.

Station 42019 (LLNR 1285) - FREEPORT, TX - 60 NM South of Freeport, TX Image indicating link to RSS feed of recent meteorological observations for station 42019


Conditions at 42019 as of
(9:10 am CDT)
1410 GMT on 06/20/2024:
     

Click on the graph icon in the table below to see a time series plot of the last five days of that observation.

5-day plot - Wind Direction Wind Direction (WDIR): E ( 90 deg true )
5-day plot - Wind Speed Wind Speed (WSPD): 21.4 kts
5-day plot - Wind Gust Wind Gust (GST): 27.2 kts
5-day plot - Atmospheric Pressure Atmospheric Pressure (PRES):29.95 in
5-day plot - Water Temperature Water Temperature (WTMP): 83.8 °F
5-day plot - Wind Speed at 10 Meters Wind Speed at 10 meters (WSPD10M): 23.3 kts
5-day plot - Wind Speed at 20 Meters Wind Speed at 20 meters (WSPD20M): 25.3 kts
5-day plot -  Wind Speed, Wind Gust and Atmospheric Pressure Combined plot of Wind Speed, Gust, and Air Pressure
Supplemental Measurements
Highest 1-minute Wind Speed
Time (CDT)5-day plot - 1-Minute Wind Speed WSPD 5-day plot - 1-Minute Wind Direction WDIR
9:05 am 23.3 kts-
Previous observations
TIME
(CDT)
5-day plot - Wind Direction
WDIR
 
5-day plot - Wind Speed
WSPD
kts
5-day plot - Wind Gust
GST
kts
5-day plot - Wave Height
WVHT
ft
5-day plot - Dominant Wave Period
DPD
sec
5-day plot - Average Wave Period
APD
sec
5-day plot - Mean Wave Direction
MWD
 
5-day plot - Atmospheric Pressure
PRES
in
5-day plot - Pressure Tendency
PTDY
in
5-day plot - Air Temperature
ATMP
°F
5-day plot - Water Temperature
WTMP
°F
5-day plot - Dew Point
DEWP
°F
5-day plot - Salinity
SAL
psu
5-day plot - Visibility
VIS
nmi
5-day plot - Tide (above MLLW)
TIDE
ft
2024-06-20 09:00 am E 19.4 25.3----29.95+0.08- 83.8----
2024-06-20 08:50 am E 21.4 25.3 12.5 106.9ESE29.94-- 83.8----
2024-06-20 08:40 am E 21.4 25.3 12.5-6.9ESE29.93-- 83.8----
2024-06-20 08:30 am E 21.4 27.2----29.93-- 83.8----
2024-06-20 08:20 am E 21.4 27.2 11.2 106.7ESE29.93-- 83.8----
2024-06-20 08:10 am E 19.4 25.3 11.2-6.7ESE29.92-- 83.8----
2024-06-20 08:00 am E 21.4 29.1----29.92+0.06- 83.8----
2024-06-20 07:50 am E 21.4 25.3 11.5 116.6ESE29.91-- 83.8----
2024-06-20 07:40 am E 21.4 27.2----29.91-- 83.8----
2024-06-20 07:30 am E 21.4 27.2----29.91-- 83.8----
2024-06-20 07:20 am E 23.3 29.1 11.8 86.7 E29.91-- 83.8----
2024-06-20 07:10 am E 23.3 29.1 11.8-6.7 E29.90-- 83.8----
2024-06-20 07:00 am E 23.3 29.1----29.89+0.03- 83.8----
2024-06-20 06:50 am E 23.3 29.1 12.1 106.8ESE29.89-- 83.8----
2024-06-20 06:40 am E 21.4 27.2----29.88-- 83.8----
2024-06-20 06:30 am E 23.3 29.1----29.88-- 83.8----
2024-06-20 06:20 am E 23.3 29.1 13.5 106.9ESE29.88-- 83.8----
2024-06-20 06:10 am E 21.4 27.2----29.88-- 83.8----
2024-06-20 06:00 am E 21.4 25.3----29.87+0.00- 83.8----
2024-06-20 05:50 am E 21.4 29.1 11.8 86.6 E29.87-- 83.8----
2024-06-20 05:40 am E 23.3 29.1----29.87-- 83.8----
2024-06-20 05:30 am E 21.4 29.1----29.87-- 83.8----
2024-06-20 05:20 am E 19.4 27.2 12.1 86.8 E29.86-- 83.8----
2024-06-20 05:10 am E 19.4 23.3 12.1-6.8 E29.87-- 83.8----
2024-06-20 05:00 am E 19.4 25.3----29.86+0.00- 83.8----
2024-06-20 04:50 am E 21.4 27.2 13.5 116.8ESE29.87-------
2024-06-20 04:40 am E 21.4 29.1 13.5-6.8ESE29.87-- 83.8----
2024-06-20 04:30 am E 23.3 31.1----29.86-- 83.8----
2024-06-20 04:20 am E 23.3 31.1 12.1 96.6ESE29.86-- 83.8----
2024-06-20 04:10 am E 23.3 31.1 12.1-6.6ESE29.86-- 83.8----
2024-06-20 04:00 am E 25.3 33.0----29.86+0.00- 83.8----
2024-06-20 03:50 am E 23.3 33.0 12.8 96.6 E29.86-- 83.8----
2024-06-20 03:40 am E 25.3 33.0 12.8-6.6 E29.86-- 83.8----
2024-06-20 03:30 am E 23.3 29.1----29.86-- 83.8----
2024-06-20 03:20 am E 25.3 31.1 12.5 86.7 E29.86-- 83.8----
2024-06-20 03:10 am E 25.3 31.1 12.5-6.7 E29.86-- 83.8----
2024-06-20 03:00 am E 23.3 29.1----29.86-0.01- 83.8----
2024-06-20 02:50 am E 23.3 31.1 13.8 87.0 E29.87-- 83.8----
2024-06-20 02:40 am E 23.3 31.1----29.87-- 83.8----
2024-06-20 02:30 am E 23.3 31.1----29.86-- 83.8----
2024-06-20 02:20 am E 25.3 31.1 13.5 106.8ESE29.86-- 83.8----
2024-06-20 02:10 am E 25.3 35.0 13.5-6.8ESE29.86-- 83.8----
2024-06-20 02:00 am E 25.3 33.0----29.86+0.00- 83.8----
2024-06-20 01:50 am E 25.3 33.0 13.8 86.8ESE29.86-- 83.8----
2024-06-20 01:40 am E 23.3 31.1----29.86-- 83.8----
2024-06-20 01:30 am E 25.3 33.0----29.86-- 83.8----
2024-06-20 01:20 am E 25.3 35.0 13.5 96.8 E29.86-- 84.0----
2024-06-20 01:10 am E 27.2 36.9----29.86-- 84.0----
2024-06-20 01:00 am E 27.2 35.0----29.86+0.02- 84.0----
2024-06-20 12:50 am E 27.2 33.0 14.4 107.1ESE29.86-- 84.0----
2024-06-20 12:40 am E 27.2 33.0----29.86-- 84.0----
2024-06-20 12:30 am E 25.3 31.1----29.87-- 84.0----
2024-06-20 12:20 am E 25.3 35.0 14.4 107.1ESE29.87-- 84.0----
2024-06-20 12:10 am E 27.2 35.0 14.4-7.1ESE29.87-- 84.0----
2024-06-20 12:00 am E 27.2 33.0----29.87+0.06------
2024-06-19 11:50 pm E 25.3 31.1 13.5 96.7 E29.88-- 84.0----
2024-06-19 11:40 pm E 27.2 36.9----29.87-- 84.0----
2024-06-19 11:30 pm E 27.2 35.0----29.88-- 84.0----
2024-06-19 11:20 pm E 27.2 38.9 13.5 106.7 E29.87-- 84.0----
2024-06-19 11:10 pm E 27.2 35.0 13.5-6.7 E29.87-- 84.0----
2024-06-19 11:00 pm E 27.2 36.9----29.86+0.07- 84.2----
2024-06-19 10:50 pm E 27.2 33.0 12.8 86.4 E29.86-- 84.2----
2024-06-19 10:40 pm E 27.2 36.9----29.86-------
2024-06-19 10:30 pm E 27.2 35.0----29.85-- 84.2----
2024-06-19 10:20 pm E 25.3 33.0 13.5 106.7ESE29.85-- 84.2----
2024-06-19 10:10 pm E 27.2 35.0 13.5-6.7ESE29.84-- 84.2----
2024-06-19 10:00 pm E 27.2 35.0----29.84+0.06- 84.2----
2024-06-19 09:50 pm E 27.2 33.0 13.8 86.6 E29.83-- 84.2----
2024-06-19 09:40 pm E 27.2 33.0 13.8-6.6 E29.83-- 84.2----
2024-06-19 09:30 pm E 27.2 36.9----29.83-- 84.2----
2024-06-19 09:20 pm E 27.2 35.0 14.1 86.8 E29.83-- 84.2----
2024-06-19 09:10 pm E 27.2 35.0 14.1-6.8 E29.82-- 84.2----
2024-06-19 09:00 pm E 27.2 35.0----29.82+0.04- 84.2----
2024-06-19 08:50 pm E 27.2 35.0 12.1 86.3 E29.81-------
2024-06-19 08:40 pm E 27.2 35.0----29.81-- 84.4----
2024-06-19 08:30 pm E 27.2 33.0----29.80-- 84.4----
2024-06-19 08:20 pmENE 27.2 33.0 13.5 116.6 E29.80-------
2024-06-19 08:10 pmENE 25.3 33.0 13.5-6.6 E29.79-- 84.4----
2024-06-19 08:00 pm E 27.2 35.0----29.79+0.02- 84.4----
2024-06-19 07:50 pm E 29.1 35.0 13.8 116.8ESE29.79-- 84.4----
2024-06-19 07:40 pm E 27.2 36.9 13.8-6.8ESE29.79-- 84.6----
2024-06-19 07:30 pm E 27.2 35.0----29.78-- 84.6----
2024-06-19 07:20 pm E 27.2 35.0 12.8 86.6 E29.78-- 84.6----
2024-06-19 07:10 pm E 27.2 38.9 12.8-6.6 E29.78-- 84.6----
2024-06-19 07:00 pm E 29.1 36.9----29.78+0.01- 84.6----
2024-06-19 06:50 pm E 27.2 36.9 13.5 116.8 E29.78-- 84.6----
2024-06-19 06:40 pm E 27.2 35.0----29.78-- 84.6----
2024-06-19 06:20 pm E 25.3 33.0 13.1 106.9ESE29.78-- 84.6----
2024-06-19 06:10 pm E 23.3 29.1 13.1-6.9ESE29.78-- 84.6----
2024-06-19 06:00 pm E 23.3 31.1----29.78+0.00- 84.4----
2024-06-19 05:50 pm E 23.3 31.1 12.5 106.8 E29.77-- 84.4----
2024-06-19 05:40 pm E 23.3 29.1----29.77-- 84.4----
2024-06-19 05:30 pm E 25.3 31.1----29.78-- 84.4----
2024-06-19 05:20 pm E 23.3 31.1 12.5 116.8 E29.78-- 84.4----
2024-06-19 05:10 pm E 23.3 29.1 12.5-6.8 E29.77-- 84.4----
2024-06-19 05:00 pm E 25.3 35.0----29.77+0.00- 84.4----
2024-06-19 04:50 pm E 27.2 36.9 13.1 116.9ESE29.77-- 84.4----
2024-06-19 04:40 pm E 25.3 31.1 13.1-6.9ESE29.77-- 84.4----
2024-06-19 04:30 pm E 25.3 33.0----29.77-- 84.6----
2024-06-19 04:20 pm E 23.3 31.1 12.1 116.8 E29.76-- 84.6----
2024-06-19 04:10 pm E 23.3 29.1 12.1-6.8 E29.76-- 84.6----
2024-06-19 04:00 pm E 23.3 31.1----29.77-0.01- 84.6----
2024-06-19 03:50 pmENE 23.3 31.1 13.5 116.9ESE29.77-- 84.7----
2024-06-19 03:40 pm E 23.3 31.1----29.77-- 84.7----
2024-06-19 03:30 pm E 23.3 31.1----29.77-- 84.7----
2024-06-19 03:20 pm E 23.3 29.1 12.5 106.9 E29.77-- 84.7----
2024-06-19 03:10 pm E 23.3 31.1 12.5-6.9 E29.77-- 84.7----
2024-06-19 03:00 pmENE 23.3 31.1----29.78+0.00- 84.7----
2024-06-19 02:50 pm E 23.3 29.1 12.8 116.9 E29.78-- 84.7----
2024-06-19 02:40 pm E 21.4 29.1 12.8-6.9 E29.78-- 84.7----
2024-06-19 02:30 pm E 23.3 29.1----29.77-- 84.7----
2024-06-19 02:20 pm E 23.3 31.1 11.5 116.6 E29.77-- 84.7----
2024-06-19 02:10 pm E 23.3 33.0 11.5-6.6 E29.77-- 84.7----
2024-06-19 02:00 pm E 21.4 29.1----29.78+0.00- 84.7----
2024-06-19 01:50 pm E 23.3 29.1 13.8 117.2ESE29.77-- 84.7----
2024-06-19 01:40 pm E 23.3 31.1 13.8-7.2ESE29.77-- 84.6----
2024-06-19 01:30 pm E 23.3 29.1----29.78-- 84.4----
2024-06-19 01:20 pm E 23.3 29.1 12.8 117.1 E29.78-- 84.4----
2024-06-19 01:10 pm E 23.3 27.2 12.8-7.1 E29.78-- 84.4----
2024-06-19 01:00 pm E 23.3 29.1----29.78+0.01------
2024-06-19 12:50 pm E 23.3 29.1 13.8 117.3ESE29.78-- 84.4----
2024-06-19 12:40 pm E 21.4 27.2----29.78-- 84.4----
2024-06-19 12:30 pm E 23.3 29.1----29.79-- 84.4----
2024-06-19 12:20 pm E 27.2 38.9 13.1 117.1ESE29.79-- 84.4----
2024-06-19 12:10 pmENE 23.3 31.1 13.1-7.1ESE29.78-- 84.4----
2024-06-19 12:00 pm E 23.3 29.1----29.78+0.02- 84.2----
2024-06-19 11:50 am E 21.4 27.2 13.5 107.2ESE29.78-- 84.2----
2024-06-19 11:40 am E 23.3 31.1 13.5-7.2ESE29.77-- 84.2----
2024-06-19 11:30 am E 21.4 31.1----29.78-- 84.0----
2024-06-19 11:20 am E 21.4 27.2 12.5 117.1ESE29.78-- 84.0----
2024-06-19 11:10 am E 21.4 27.2 12.5-7.1ESE29.78-- 84.2----
2024-06-19 11:00 am E 21.4 33.0----29.77+0.04- 84.2----
2024-06-19 10:50 am E 23.3 31.1 13.8 117.3ESE29.77-- 84.2----
2024-06-19 10:40 am E 21.4 29.1----29.77-- 84.2----
2024-06-19 10:30 am E 21.4 29.1----29.77-- 84.2----
2024-06-19 10:20 am E 21.4 27.2 13.5 107.2ESE29.77-- 84.2----
2024-06-19 10:10 am E 23.3 31.1 13.5-7.2ESE29.76-- 84.2----
2024-06-19 10:00 am E 23.3 31.1----29.76+0.04- 84.2----
2024-06-19 09:50 am E 23.3 31.1 13.1 117.2ESE29.76-- 84.2----
2024-06-19 09:40 am E 23.3 31.1----29.76-- 84.2----
2024-06-19 09:30 am E 23.3 31.1----29.76-- 84.2----
2024-06-19 09:20 amENE 21.4 27.2 14.1 107.4ESE29.76-- 84.2----
2024-06-19 09:10 am E 19.4 25.3 14.1-7.4ESE29.76-- 84.2----
2024-06-19 09:00 am E 13.6 19.4----29.76+0.06- 84.2----
2024-06-19 08:50 am E 17.5 21.4 13.1 107.0 E29.76-- 84.2----

Detailed Wave Summary
for 42019 as of (8:40 am CDT)
1340 GMT on 06/20/2024:

These wave data are displayed in rounded times.

     

Click on the graph icon in the table below to see a time series plot of the last five days of that observation.

5-day plot - Significant Wave Height Significant Wave Height (WVHT): 12.5 ft
5-day plot - Swell Height Swell Height (SwH): 9.2 ft
5-day plot - Swell Period Swell Period (SwP): 10.0 sec
5-day plot - Swell Direction Swell Direction (SwD):ESE
5-day plot - Wind Wave Height Wind Wave Height (WWH): 8.5 ft
5-day plot - Wind Wave Period Wind Wave Period (WWP): 5.9 sec
5-day plot - Wind Wave Direction Wind Wave Direction (WWD):ESE
5-day plot - Wave Steepness Wave Steepness (STEEPNESS): AVERAGE
5-day plot - Average Wave Period Average Wave Period (APD): 6.9 sec
Previous observations
TIME
(CDT)
5-day plot - Wave Height
WVHT
ft
5-day plot - Swell Height
SwH
ft
5-day plot - Swell Period
SwP
sec
5-day plot - Swell Direction
SwD
 
5-day plot - Wind Wave Height
WWH
ft
5-day plot - Wind Wave Period
WWP
sec
5-day plot - Wind Wave Direction
WWD
 
5-day plot - Wave Steepness
STEEPNESS
 
5-day plot - Average Wave Period
APD
sec
2024-06-20 08:10 am 11.2 7.5 10.0ESE 8.2 5.6 E AVERAGE 6.7
2024-06-20 07:40 am 11.5 7.2 10.8ESE 9.2 7.7 E AVERAGE 6.6
2024-06-20 07:10 am 11.8 7.2 10.0ESE 9.5 7.7 EVERY_STEEP 6.7
2024-06-20 06:40 am 12.1 7.5 10.0ESE 9.8 6.7 E AVERAGE 6.8
2024-06-20 06:10 am 13.5 7.2 10.0ESE 11.2 8.3 E STEEP 6.9
2024-06-20 05:40 am 11.8 6.9 10.8ESE 9.5 7.7 EVERY_STEEP 6.6
2024-06-20 05:10 am 12.1 0.0-- 12.1 8.3 E STEEP 6.8
2024-06-20 04:40 am 13.5 8.2 10.8ESE 10.2 8.3 ESE AVERAGE 6.8
2024-06-20 04:10 am 12.1 7.5 9.1ESE 9.5 5.9 E STEEP 6.6
2024-06-20 03:40 am 12.8 0.0-- 12.8 9.1 E STEEP 6.6
2024-06-20 03:10 am 12.5 0.0-- 12.5 8.3 E STEEP 6.7
2024-06-20 02:40 am 13.8 0.0-- 13.8 8.3 E STEEP 7.0
2024-06-20 02:10 am 13.5 0.0-- 13.5 10.0 ESE STEEP 6.8
2024-06-20 01:40 am 13.8 0.0-- 13.8 8.3 ESE STEEP 6.8
2024-06-20 01:10 am 13.5 6.9 10.8ESE 11.5 9.1 E STEEP 6.8
2024-06-20 12:40 am 14.4 10.5 10.0ESE 9.8 7.1 E STEEP 7.1
2024-06-20 12:10 am 14.4 10.5 10.0ESE 10.2 6.2 E STEEP 7.1
2024-06-19 11:40 pm 13.5 9.2 9.1 E 9.8 7.7 E STEEP 6.7
2024-06-19 11:10 pm 13.5 7.2 10.0 E 11.2 6.7 E STEEP 6.7
2024-06-19 10:40 pm 12.8 0.0-- 12.8 7.7 EVERY_STEEP 6.4
2024-06-19 10:10 pm 13.5 0.0-- 13.5 10.0 ESE STEEP 6.7
2024-06-19 09:40 pm 13.8 0.0-- 13.8 7.7 EVERY_STEEP 6.6
2024-06-19 09:10 pm 14.1 9.2 10.0 E 10.8 8.3 EVERY_STEEP 6.8
2024-06-19 08:40 pm 12.1 6.9 10.8ESE 9.8 7.7 EVERY_STEEP 6.3
2024-06-19 08:10 pm 13.5 7.2 10.8 E 11.2 7.7 E AVERAGE 6.6
2024-06-19 07:40 pm 13.8 8.9 10.8ESE 10.5 5.9 E AVERAGE 6.8
2024-06-19 07:10 pm 12.8 7.5 10.8ESE 10.2 8.3 E STEEP 6.6
2024-06-19 06:40 pm 13.5 9.2 10.8 E 10.2 8.3 E AVERAGE 6.8
2024-06-19 06:10 pm 13.1 9.2 10.0ESE 9.5 8.3 ESE STEEP 6.9
2024-06-19 05:40 pm 12.5 7.2 10.0 E 10.2 6.7 E AVERAGE 6.8
2024-06-19 05:10 pm 12.5 6.9 10.8 E 10.2 8.3 E AVERAGE 6.8
2024-06-19 04:40 pm 13.1 8.2 10.8ESE 10.5 7.7 E AVERAGE 6.9
2024-06-19 04:10 pm 12.1 8.5 10.8 E 8.5 7.1 E AVERAGE 6.8
2024-06-19 03:40 pm 13.5 9.5 10.8ESE 9.5 7.7 E AVERAGE 6.9
2024-06-19 03:10 pm 12.5 8.5 10.0 E 9.2 8.3 E AVERAGE 6.9
2024-06-19 02:40 pm 12.8 8.2 10.8 E 10.2 5.9 E AVERAGE 6.9
2024-06-19 02:10 pm 11.5 7.5 10.8 E 8.9 7.1 E AVERAGE 6.6
2024-06-19 01:40 pm 13.8 9.8 10.8ESE 9.8 8.3 E AVERAGE 7.2
2024-06-19 01:10 pm 12.8 9.8 10.8 E 8.5 7.7 E AVERAGE 7.1
2024-06-19 12:40 pm 13.8 9.8 10.8ESE 9.8 7.1 E AVERAGE 7.3
2024-06-19 12:10 pm 13.1 9.5 10.8ESE 8.9 6.7 E AVERAGE 7.1
2024-06-19 11:40 am 13.5 8.2 10.0ESE 10.5 7.7 E STEEP 7.2
2024-06-19 11:10 am 12.5 9.2 10.8ESE 8.9 7.7 E AVERAGE 7.1
2024-06-19 10:40 am 13.8 8.5 10.8ESE 10.8 6.2 E AVERAGE 7.3
2024-06-19 10:10 am 13.5 8.5 10.0ESE 10.5 6.7 E STEEP 7.2
2024-06-19 09:40 am 13.1 9.2 10.8ESE 9.5 8.3 E AVERAGE 7.2
2024-06-19 09:10 am 14.1 9.2 10.0ESE 10.8 7.7 E STEEP 7.4

Plot of wave energy versus frequency (and period)